Vorticity
15 13 12 11 11 11 11 10 10 10 10 10 10 10 10 10 10 10 10 10 10 10 9 9 8 8 8 7 7 7 6 6 6 5 5 5 5 5 5 5 5 5 5 5 5 5 5 5 5 5 5 5 5 5 5 5 5 5 4 4 4 4 4 4 4 5 6 8 9
25 23 21 19 18 17 16 16 15 13 12 11 11 10 10 10 10 9 9 9 9 8 8 8 8 7 7 7 7 6 6 6 6 5 5 5 5 5 5 5 5 5 5 6 6 6 6 6 6 6 6 6 6 6 6 6 5 5 5 5 5 4 4 4 4 5 5 6 7
35 34 32 30 29 27 25 24 23 21 20 18 17 15 14 13 12 12 11 10 10 9 9 8 8 7 7 7 7 6 6 6 6 6 6 6 6 6 6 6 6 6 6 6 6 6 6 6 6 6 6 6 6 6 6 6 6 6 6 5 5 5 5 5 5 5 5 5 6
27 28 29 29 29 28 28 27 26 25 24 22 21 20 18 17 16 15 14 13 13 12 11 10 10 9 9 8 8 8 8 7 7 7 7 7 7 7 7 7 7 7 7 7 7 7 7 7 7 7 7 7 7 7 7 7 7 6 6 6 6 6 6 6 6 6 6 6 6
16 17 18 18 19 20 21 21 22 22 22 22 22 21 21 20 19 18 17 16 16 14 13 12 12 12 11 11 11 11 11 11 11 11 10 11 11 11 10 10 10 10 9 9 9 8 8 8 8 8 8 8 8 8 8 7 7 7 7 7 7 7 6 6 6 7 7 7 7
20 20 20 19 18 17 17 17 17 17 18 19 19 20 20 20 20 20 20 19 19 18 17 17 16 16 16 16 16 16 16 16 16 16 16 16 16 16 16 16 15 14 13 13 12 12 11 11 11 11 10 10 9 9 9 8 8 8 7 7 7 7 7 7 7 7 8 8 8
27 29 30 31 31 30 29 27 25 23 22 21 20 20 20 19 20 20 21 21 22 22 22 22 22 22 22 22 22 22 21 21 21 21 21 21 21 21 20 20 19 19 18 17 17 16 16 15 15 15 14 13 12 12 11 10 10 9 9 9 9 9 9 9 9 9 9 9 9
25 28 33 37 41 43 44 44 42 39 36 34 31 29 26 24 22 21 21 21 21 22 22 23 24 24 24 24 24 24 24 24 25 25 25 24 24 23 23 23 23 23 22 22 22 22 21 21 20 19 18 17 17 16 15 14 13 12 12 12 12 12 11 11 11 11 11 11 11
12 15 19 24 31 38 44 50 52 52 51 50 48 45 41 38 34 30 27 24 22 21 20 20 20 21 21 21 22 22 22 23 23 24 24 24 24 24 24 25 25 25 26 26 26 25 25 25 24 23 22 21 20 20 19 18 17 16 16 16 16 16 15 15 14 13 13 13 13
3 3 3 5 9 16 26 36 44 50 54 55 56 56 56 54 50 46 41 36 32 28 25 23 21 20 19 18 18 18 18 19 20 20 21 22 22 23 24 25 25 26 26 27 27 26 26 25 25 24 24 22 22 22 22 21 20 20 20 19 19 19 19 19 18 17 17 16 15
2 2 1 2 2 4 7 12 20 28 36 42 47 51 55 58 59 58 55 51 46 42 38 33 29 26 24 21 19 18 17 17 17 17 18 18 19 20 21 22 23 24 24 25 25 25 24 24 24 24 24 23 23 23 23 23 22 22 22 21 21 21 22 22 22 21 21 19 18
6 7 8 9 9 8 7 5 6 9 14 20 26 33 39 46 52 56 59 59 57 54 51 47 43 39 35 31 28 25 22 20 19 19 19 19 20 21 22 22 23 24 24 24 24 24 25 25 25 25 26 26 26 26 26 26 25 25 24 24 23 23 24 24 24 24 23 23 22
12 13 13 13 13 12 11 9 8 6 6 7 11 17 23 30 38 44 49 53 55 55 55 55 53 51 48 46 42 39 36 33 30 28 27 26 26 25 25 25 25 25 25 25 26 27 27 28 28 28 28 29 30 30 30 29 29 29 28 28 28 27 27 26 26 26 26 26 26
15 15 14 13 13 13 12 12 10 9 7 6 6 8 12 18 25 32 39 43 45 47 49 50 52 52 52 51 49 46 43 40 36 33 31 29 27 26 25 25 25 26 27 28 29 30 30 29 29 29 29 29 30 31 31 31 31 31 31 31 30 29 28 27 27 28 28 28 27
15 14 13 12 13 14 15 15 14 13 11 10 8 7 7 9 14 20 27 33 36 38 40 41 42 42 42 41 40 38 37 34 32 30 28 27 26 25 26 26 27 28 28 28 29 29 29 28 28 29 28 28 27 27 27 27 28 29 30 30 29 28 27 26 26 26 26 25 25
14 13 12 12 13 15 16 18 17 16 15 14 13 11 9 7 7 9 13 18 23 27 29 30 31 31 30 30 30 30 29 29 29 29 29 29 30 31 31 30 29 27 26 25 24 25 26 27 28 29 29 27 25 23 21 20 21 22 24 25 25 25 24 23 22 22 22 21 21
10 9 9 8 9 10 12 14 15 16 16 16 16 15 14 12 9 7 7 7 10 14 17 19 20 21 22 23 24 24 25 26 26 27 28 29 30 31 31 29 26 24 22 22 22 22 23 24 26 27 27 26 24 21 19 18 17 17 18 20 21 21 21 20 20 19 19 19 19
5 5 4 4 3 4 5 7 8 9 10 11 13 15 16 16 15 13 11 9 9 10 13 15 17 19 20 20 21 22 23 24 25 26 26 25 25 24 23 22 21 20 20 20 21 21 22 22 22 22 22 21 20 19 18 17 17 17 18 19 19 19 19 19 19 18 18 18 18
4 4 4 3 3 3 4 4 5 5 6 6 8 11 14 16 16 14 13 12 11 11 11 12 13 13 12 12 11 12 13 15 18 19 19 19 18 17 17 17 17 17 17 17 18 18 19 19 19 19 19 19 19 19 19 19 19 19 19 20 20 20 20 20 20 20 20 19 19
7 6 6 6 7 7 7 7 7 7 6 5 6 8 10 14 15 14 12 10 8 8 8 8 8 8 7 5 4 3 4 5 7 9 11 13 12 12 13 14 16 16 15 13 12 11 11 12 13 14 15 16 17 17 17 17 17 17 17 17 17 18 19 20 21 21 21 21 21
9 9 9 10 11 11 10 10 9 9 8 7 7 7 9 11 14 15 14 12 10 8 7 7 9 10 12 12 10 10 10 11 11 10 8 7 6 7 9 11 13 16 17 17 14 12 9 7 7 8 9 11 13 14 15 14 14 13 12 11 11 11 12 12 13 15 16 17 19
12 12 12 12 12 12 11 10 10 10 10 9 8 8 8 9 11 13 14 16 15 14 12 10 10 11 11 11 11 12 15 18 19 18 16 12 9 6 5 6 7 10 14 18 21 20 17 12 8 7 8 11 13 15 17 18 18 17 15 13 11 10 9 8 9 9 9 10 11
14 14 13 13 11 11 10 11 12 12 12 12 11 11 10 10 10 11 12 13 14 14 14 12 11 9 7 6 7 10 14 18 20 21 21 18 15 12 9 7 7 8 10 13 17 19 19 16 11 9 9 11 12 14 16 18 19 20 20 19 18 17 17 16 16 15 13 12 11
13 13 12 11 11 11 11 12 13 13 13 13 13 13 12 12 12 11 11 11 11 11 11 11 9 8 7 7 7 9 10 12 13 14 15 15 13 12 10 9 9 8 8 8 10 11 12 11 10 10 10 10 10 10 11 11 12 13 14 14 15 16 18 19 19 19 18 18 18
11 10 10 9 9 10 10 10 10 10 11 11 11 11 11 10 10 10 10 9 9 9 9 9 8 8 7 6 6 6 5 5 5 5 6 6 6 6 6 6 6 6 6 6 6 6 6 6 6 6 6 6 5 5 5 5 5 5 5 5 5 5 6 7 9 10 11 12 14
8 7 7 7 7 7 7 7 6 6 6 7 6 6 6 6 6 6 6 5 5 5 5 5 4 4 4 4 3 3 2 2 2 2 2 2 2 2 2 2 2 2 2 2 2 2 2 2 2 2 2 1 1 1 1 1 1 1 1 1 1 1 1 1 1 2 2 3 3
6 6 6 6 5 5 5 5 4 4 4 4 3 3 3 3 3 3 2 2 2 2 2 2 2 1 1 1 1 1 1 1 1 1 1 1 1 1 1 1 1 1 1 1 1 1 1 1 1 1 1 1 1 1 1 0 1 1 1 1 1 1 1 1 1 1 1 1 1
5 5 5 5 5 4 4 4 4 3 3 3 2 2 2 2 2 1 1 1 1 1 1 1 1 1 1 1 1 1 1 1 1 1 1 1 1 1 1 1 1 1 1 1 1 1 1 1 1 1 1 1 1 1 1 1 1 1 1 1 1 1 1 1 2 2 1 1 1
5 5 5 5 4 4 4 4 3 3 3 2 2 2 2 2 1 1 1 1 1 1 1 1 1 1 1 1 1 1 1 1 1 1 1 1 1 1 1 1 1 1 1 1 1 1 1 1 1 2 2 2 2 2 2 2 2 2 2 2 2 2 2 2 2 2 2 2 2
5 5 5 4 4 4 3 3 3 3 2 2 2 2 1 1 1 1 1 1 1 1 1 1 1 1 1 1 1 1 1 1 1 1 1 1 1 1 2 2 2 2 2 2 2 2 2 2 2 2 2 2 2 2 3 3 3 3 3 3 3 3 3 3 3 3 3 3 3
5 4 4 4 3 3 3 3 2 2 2 2 1 1 1 1 1 1 1 1 1 1 1 1 1 1 1 1 2 2 2 2 2 2 2 2 2 2 3 3 3 3 3 3 3 3 3 3 3 4 4 4 4 4 4 4 4 4 4 4 4 4 4 4 4 4 4 4 4
4 4 3 3 3 3 2 2 2 2 2 2 1 1 1 1 1 1 1 1 1 1 2 2 2 2 2 2 3 3 3 3 3 3 3 4 4 4 4 4 4 4 4 4 4 5 5 5 5 5 5 5 5 5 5 5 5 5 5 5 5 5 5 5 5 5 5 5 5
3 3 3 3 2 2 2 2 2 2 2 2 2 2 2 2 2 2 2 2 2 2 2 3 3 3 3 3 4 4 4 4 4 4 4 5 5 5 5 5 5 6 6 6 6 6 6 6 6 7 7 7 7 7 7 7 7 7 7 6 6 6 6 6 6 6 6 6 6
3 3 3 3 2 2 2 2 2 2 2 2 2 2 2 2 2 2 3 3 3 3 3 3 4 4 4 4 4 4 5 5 5 5 5 6 6 6 6 6 7 7 7 7 7 7 7 7 7 7 7 7 7 7 7 7 7 7 7 7 6 6 6 6 6 6 6 6 6
3 3 3 3 3 3 2 2 2 2 2 2 2 3 3 3 3 3 3 3 4 4 4 4 4 4 4 4 5 5 5 5 6 6 6 6 7 7 7 7 8 8 8 8 8 8 8 8 7 7 7 7 7 7 7 7 6 6 6 6 6 6 6 6 6 5 5 5 5
3 3 3 3 3 3 3 3 3 3 3 3 3 3 3 3 4 4 4 4 4 4 4 5 5 5 5 5 5 5 5 6 6 6 7 7 7 7 8 8 8 8 8 8 8 8 8 8 8 8 7 7 7 7 7 6 6 6 6 6 6 6 6 5 5 5 5 5 5
3 3 3 3 3 3 3 3 3 3 3 3 4 4 4 4 4 4 4 5 5 5 5 5 5 5 5 5 6 6 6 6 7 7 7 7 8 8 8 8 8 8 8 8 8 8 8 8 8 8 7 7 7 7 7 6 6 6 6 6 6 5 5 5 5 5 5 4 4
4 4 4 4 4 4 4 4 4 4 4 4 4 4 4 4 4 5 5 5 5 5 5 5 5 5 5 6 6 6 6 6 7 7 8 8 8 8 8 8 8 8 8 8 8 8 8 8 8 7 7 7 7 7 6 6 6 6 5 5 5 5 5 4 4 4 4 3 3
4 4 4 4 4 4 4 4 4 4 4 4 4 4 5 5 5 5 5 5 5 5 5 5 5 5 6 6 6 6 7 7 7 8 8 8 8 8 8 8 8 8 8 8 8 8 8 8 7 7 7 7 6 6 6 6 5 5 5 5 5 5 5 4 4 4 4 3 3
4 4 4 4 4 4 4 4 4 4 4 4 5 5 5 5 5 5 5 6 5 5 5 5 5 6 6 6 6 7 7 7 8 8 8 8 9 9 9 9 8 8 8 8 8 8 8 7 7 7 6 6 6 6 6 6 6 6 6 5 5 5 5 5 4 4 4 4 4
4 4 4 4 4 4 4 4 4 4 5 5 5 5 5 5 5 5 6 6 6 5 5 5 6 6 6 6 6 7 7 8 8 8 8 8 9 8 8 8 8 8 8 8 8 7 7 7 7 7 6 6 6 6 6 6 6 6 6 6 5 5 5 5 4 4 4 5 5
Height
5628 5629 5630 5631 5632 5633 5634 5634 5635 5636 5637 5638 5639 5639 5640 5641 5642 5643 5645 5646 5647 5649 5650 5651 5652 5654 5655 5657 5657 5658 5659 5660 5661 5662 5664 5665 5666 5667 5668 5670 5671 5672 5673 5674 5675 5676 5677 5679 5680 5681 5682 5682 5683 5685 5686 5687 5688 5688 5689 5690 5690 5691 5691 5692 5693 5693 5694 5695 5696
5626 5627 5627 5628 5629 5630 5630 5631 5632 5632 5633 5634 5635 5635 5636 5637 5638 5639 5640 5642 5643 5644 5645 5647 5648 5649 5650 5652 5652 5653 5655 5656 5657 5658 5659 5661 5662 5663 5664 5665 5667 5668 5669 5670 5671 5672 5673 5674 5675 5676 5677 5678 5679 5680 5681 5682 5683 5683 5683 5685 5686 5686 5687 5687 5687 5688 5689 5690 5691
5623 5624 5625 5626 5626 5627 5627 5628 5628 5629 5629 5630 5631 5631 5632 5633 5634 5635 5636 5637 5638 5639 5641 5642 5643 5644 5646 5647 5648 5649 5650 5651 5652 5654 5655 5656 5657 5658 5660 5661 5662 5663 5664 5665 5666 5667 5668 5669 5670 5671 5672 5673 5675 5676 5676 5677 5678 5678 5679 5680 5681 5682 5682 5682 5683 5684 5685 5686 5686
5622 5622 5623 5623 5624 5624 5624 5625 5625 5625 5626 5626 5627 5627 5628 5629 5629 5630 5631 5632 5633 5634 5636 5637 5638 5639 5641 5642 5643 5644 5645 5647 5648 5649 5650 5651 5652 5654 5655 5656 5657 5658 5659 5660 5661 5662 5663 5664 5665 5667 5668 5669 5670 5671 5671 5672 5673 5674 5674 5675 5676 5677 5677 5677 5678 5679 5680 5681 5682
5620 5621 5621 5621 5622 5622 5622 5622 5622 5622 5622 5623 5623 5623 5624 5624 5625 5626 5626 5627 5628 5629 5630 5632 5633 5634 5636 5637 5638 5639 5641 5642 5643 5644 5645 5647 5648 5649 5650 5651 5652 5653 5653 5655 5656 5657 5658 5659 5661 5662 5663 5664 5665 5666 5666 5667 5668 5669 5669 5670 5672 5672 5672 5673 5674 5675 5676 5677 5677
5619 5619 5619 5620 5620 5619 5619 5619 5619 5619 5619 5619 5620 5620 5620 5620 5621 5621 5622 5622 5623 5624 5625 5627 5628 5629 5631 5632 5633 5634 5636 5637 5638 5639 5641 5642 5643 5644 5645 5646 5647 5647 5648 5650 5651 5652 5653 5654 5655 5657 5657 5658 5660 5660 5661 5662 5663 5663 5664 5665 5667 5668 5668 5669 5669 5670 5671 5672 5672
5618 5618 5618 5618 5618 5617 5617 5617 5617 5617 5616 5616 5616 5616 5616 5616 5616 5617 5617 5618 5618 5619 5621 5622 5623 5624 5626 5627 5628 5629 5631 5632 5633 5634 5636 5637 5638 5639 5640 5641 5642 5642 5644 5645 5646 5647 5648 5649 5650 5652 5652 5653 5654 5655 5656 5657 5658 5658 5659 5660 5661 5662 5663 5664 5664 5665 5666 5667 5667
5617 5617 5617 5617 5617 5616 5615 5615 5614 5614 5613 5613 5612 5612 5612 5612 5612 5612 5613 5613 5614 5615 5616 5617 5618 5620 5621 5622 5623 5625 5626 5627 5628 5630 5631 5632 5633 5634 5635 5636 5637 5638 5640 5641 5642 5643 5644 5645 5646 5647 5647 5648 5649 5650 5651 5652 5652 5653 5654 5656 5656 5657 5658 5658 5659 5660 5661 5662 5662
5617 5617 5617 5616 5616 5615 5614 5613 5612 5611 5611 5610 5609 5609 5608 5608 5608 5608 5608 5609 5609 5610 5612 5612 5614 5615 5617 5618 5619 5621 5622 5623 5624 5626 5627 5628 5629 5630 5631 5632 5634 5635 5636 5637 5638 5639 5639 5640 5641 5642 5643 5644 5645 5645 5646 5647 5647 5648 5650 5651 5652 5652 5653 5653 5654 5655 5656 5656 5657
5616 5616 5616 5615 5615 5614 5613 5612 5611 5610 5609 5608 5607 5606 5606 5605 5605 5604 5604 5605 5605 5606 5607 5608 5609 5611 5612 5614 5615 5617 5618 5620 5621 5622 5624 5625 5626 5627 5628 5629 5631 5632 5632 5633 5634 5635 5636 5637 5637 5638 5639 5640 5641 5641 5642 5642 5643 5644 5645 5646 5647 5648 5648 5649 5649 5650 5651 5651 5652
5615 5615 5615 5614 5614 5613 5612 5611 5610 5609 5608 5606 5605 5604 5603 5602 5602 5601 5601 5601 5602 5602 5603 5604 5606 5607 5609 5610 5612 5614 5615 5617 5618 5620 5621 5622 5624 5625 5626 5627 5628 5629 5629 5630 5631 5631 5632 5632 5633 5634 5635 5636 5637 5637 5638 5639 5639 5640 5641 5642 5643 5643 5644 5644 5645 5645 5646 5647 5648
5614 5614 5614 5614 5613 5612 5612 5611 5610 5608 5607 5606 5604 5603 5602 5601 5600 5599 5599 5599 5599 5599 5600 5601 5602 5604 5606 5607 5609 5611 5613 5615 5616 5618 5619 5621 5622 5622 5623 5624 5625 5626 5626 5627 5627 5628 5629 5630 5630 5631 5632 5632 5633 5634 5635 5636 5636 5637 5637 5638 5639 5640 5640 5640 5640 5641 5642 5642 5643
5614 5613 5613 5613 5612 5612 5611 5610 5609 5608 5607 5605 5604 5602 5602 5600 5599 5599 5598 5597 5597 5598 5598 5599 5601 5602 5604 5606 5607 5609 5611 5613 5615 5616 5617 5619 5620 5620 5621 5622 5622 5623 5623 5624 5624 5625 5626 5627 5627 5628 5629 5629 5630 5631 5631 5632 5632 5633 5633 5634 5635 5635 5636 5636 5636 5637 5637 5638 5639
5613 5613 5612 5612 5612 5611 5610 5609 5608 5607 5606 5605 5604 5603 5602 5601 5600 5599 5598 5597 5597 5597 5598 5599 5600 5601 5603 5605 5606 5608 5610 5612 5613 5615 5616 5617 5617 5618 5619 5619 5620 5620 5621 5621 5622 5622 5623 5623 5624 5625 5625 5626 5627 5627 5627 5628 5628 5629 5629 5630 5631 5631 5631 5632 5632 5632 5633 5633 5634
5613 5612 5612 5612 5611 5611 5610 5609 5607 5607 5606 5605 5604 5603 5602 5602 5601 5600 5599 5599 5598 5598 5598 5599 5600 5601 5602 5604 5606 5607 5609 5610 5612 5613 5614 5615 5615 5616 5617 5617 5617 5618 5618 5618 5619 5619 5620 5620 5621 5621 5622 5622 5623 5623 5624 5624 5625 5625 5626 5626 5627 5627 5627 5628 5628 5628 5629 5629 5630
5613 5612 5612 5612 5612 5611 5610 5609 5608 5607 5606 5605 5605 5604 5603 5603 5602 5602 5601 5601 5601 5600 5601 5601 5602 5602 5603 5605 5606 5607 5609 5610 5611 5612 5613 5614 5614 5615 5615 5616 5616 5616 5617 5617 5617 5618 5618 5618 5618 5619 5619 5619 5620 5620 5621 5622 5622 5622 5623 5623 5623 5624 5624 5625 5625 5625 5625 5626 5626
5613 5613 5612 5612 5612 5611 5610 5610 5609 5608 5607 5606 5605 5604 5604 5603 5603 5603 5603 5603 5603 5603 5603 5603 5604 5605 5606 5607 5607 5608 5610 5611 5612 5612 5613 5614 5614 5615 5615 5615 5615 5616 5616 5616 5617 5617 5617 5617 5617 5617 5617 5618 5618 5619 5619 5620 5620 5620 5621 5621 5621 5621 5622 5622 5622 5622 5622 5623 5623
5613 5613 5612 5612 5612 5611 5611 5610 5609 5608 5608 5607 5606 5605 5605 5604 5604 5604 5604 5604 5605 5605 5605 5606 5606 5607 5607 5608 5609 5610 5611 5611 5612 5613 5613 5614 5614 5614 5614 5615 5615 5615 5616 5616 5616 5616 5617 5617 5617 5617 5617 5617 5617 5617 5618 5618 5618 5619 5619 5619 5619 5619 5619 5620 5620 5620 5620 5620 5621
5613 5613 5612 5612 5612 5611 5611 5610 5610 5609 5608 5607 5607 5606 5606 5605 5605 5605 5605 5605 5605 5606 5607 5607 5607 5608 5608 5609 5610 5611 5611 5612 5612 5613 5613 5613 5614 5614 5614 5614 5614 5615 5615 5615 5615 5615 5615 5616 5616 5616 5616 5616 5616 5616 5617 5617 5617 5617 5617 5617 5617 5617 5617 5617 5618 5618 5618 5618 5618
5613 5613 5612 5612 5612 5611 5611 5610 5610 5609 5609 5608 5608 5607 5607 5607 5606 5606 5606 5606 5606 5606 5607 5608 5608 5609 5609 5610 5611 5611 5612 5612 5612 5613 5613 5613 5613 5613 5614 5614 5614 5614 5614 5614 5614 5614 5614 5614 5615 5615 5615 5615 5615 5615 5615 5616 5616 5616 5616 5616 5616 5616 5616 5616 5616 5616 5616 5616 5616
5613 5613 5612 5612 5612 5612 5611 5611 5610 5610 5609 5609 5609 5608 5608 5608 5608 5607 5607 5607 5607 5607 5607 5608 5609 5609 5610 5611 5611 5612 5612 5612 5612 5613 5613 5613 5613 5613 5614 5614 5614 5614 5614 5614 5614 5614 5614 5613 5614 5614 5614 5614 5614 5614 5614 5614 5614 5614 5614 5614 5614 5614 5614 5614 5614 5614 5614 5614 5614
5613 5613 5613 5612 5612 5612 5611 5611 5611 5610 5610 5610 5609 5609 5609 5609 5609 5609 5609 5609 5609 5609 5609 5609 5610 5610 5611 5611 5612 5612 5612 5612 5613 5613 5613 5613 5613 5613 5614 5614 5614 5614 5614 5613 5613 5613 5613 5613 5613 5613 5613 5614 5614 5613 5613 5613 5613 5613 5613 5613 5613 5613 5613 5613 5613 5612 5612 5612 5612
5613 5613 5613 5613 5612 5612 5612 5611 5611 5611 5611 5610 5610 5610 5610 5610 5610 5610 5610 5610 5610 5610 5610 5611 5611 5611 5611 5612 5612 5612 5612 5613 5613 5613 5613 5613 5613 5613 5613 5613 5613 5613 5613 5613 5613 5613 5613 5613 5613 5613 5613 5613 5613 5612 5612 5612 5612 5612 5612 5612 5612 5612 5612 5611 5611 5611 5610 5610 5610
5613 5613 5613 5613 5613 5612 5612 5612 5612 5612 5611 5611 5611 5611 5611 5611 5611 5611 5611 5611 5611 5611 5611 5612 5612 5612 5612 5612 5612 5612 5612 5612 5613 5613 5613 5613 5613 5613 5613 5613 5613 5612 5612 5612 5612 5612 5612 5612 5612 5612 5612 5611 5611 5611 5611 5611 5610 5610 5610 5610 5610 5610 5610 5609 5609 5608 5608 5607 5607
5614 5614 5613 5613 5613 5613 5613 5612 5612 5612 5612 5612 5612 5612 5612 5612 5612 5612 5612 5612 5612 5612 5612 5612 5612 5612 5612 5612 5612 5612 5612 5612 5612 5612 5612 5612 5612 5612 5612 5612 5612 5612 5612 5612 5612 5611 5611 5611 5611 5611 5610 5610 5610 5610 5609 5609 5609 5608 5608 5608 5608 5608 5607 5607 5607 5606 5606 5605 5605
5614 5614 5614 5614 5614 5613 5613 5613 5613 5613 5613 5613 5613 5612 5612 5612 5612 5612 5612 5612 5612 5612 5612 5612 5612 5612 5612 5612 5612 5612 5612 5612 5612 5612 5612 5612 5612 5612 5611 5611 5611 5611 5611 5610 5610 5610 5610 5610 5610 5609 5609 5609 5608 5608 5608 5607 5607 5607 5607 5606 5606 5605 5605 5604 5604 5603 5603 5602 5602
5615 5615 5615 5614 5614 5614 5614 5614 5614 5614 5614 5614 5614 5613 5613 5613 5613 5613 5613 5613 5613 5613 5613 5613 5613 5613 5613 5612 5612 5612 5612 5612 5612 5612 5612 5612 5611 5611 5611 5610 5610 5610 5610 5609 5609 5609 5609 5608 5608 5608 5607 5607 5607 5607 5606 5606 5605 5605 5605 5604 5604 5603 5602 5602 5601 5601 5600 5599 5598
5616 5616 5615 5615 5615 5615 5615 5615 5615 5615 5615 5615 5614 5614 5614 5614 5614 5614 5614 5613 5613 5613 5613 5613 5613 5613 5613 5613 5613 5612 5612 5612 5612 5612 5612 5612 5611 5611 5611 5610 5610 5610 5609 5609 5608 5608 5608 5607 5607 5607 5606 5606 5605 5604 5604 5604 5603 5603 5602 5602 5601 5601 5600 5599 5599 5598 5597 5596 5595
5616 5616 5616 5616 5616 5616 5616 5616 5616 5616 5615 5615 5615 5615 5615 5615 5614 5614 5614 5614 5614 5614 5614 5614 5613 5613 5613 5613 5613 5613 5612 5612 5612 5612 5612 5611 5611 5610 5610 5610 5609 5609 5609 5608 5608 5607 5607 5606 5606 5605 5605 5604 5603 5602 5602 5602 5601 5600 5600 5599 5598 5598 5597 5596 5596 5595 5594 5593 5592
5617 5617 5617 5617 5617 5617 5617 5616 5616 5616 5616 5616 5616 5615 5615 5615 5615 5615 5615 5615 5614 5614 5614 5614 5614 5613 5613 5613 5613 5612 5612 5612 5612 5611 5611 5611 5610 5610 5609 5609 5608 5608 5607 5607 5607 5606 5606 5605 5604 5604 5603 5602 5602 5601 5600 5599 5599 5598 5597 5597 5596 5595 5594 5593 5592 5592 5591 5590 5589
5617 5617 5617 5617 5617 5617 5617 5617 5617 5617 5616 5616 5616 5616 5616 5616 5616 5615 5615 5615 5615 5614 5614 5614 5613 5613 5613 5613 5612 5612 5612 5611 5611 5611 5610 5610 5609 5609 5608 5607 5607 5606 5606 5605 5605 5604 5604 5603 5602 5602 5601 5601 5600 5599 5598 5597 5597 5596 5595 5594 5593 5592 5591 5590 5589 5588 5587 5586 5585
5618 5618 5617 5617 5617 5617 5617 5617 5617 5617 5617 5616 5616 5616 5616 5616 5616 5615 5615 5615 5614 5614 5614 5613 5613 5613 5612 5612 5612 5611 5611 5610 5610 5609 5609 5608 5608 5607 5607 5606 5605 5604 5604 5603 5602 5602 5601 5601 5600 5599 5599 5598 5597 5596 5595 5594 5593 5593 5592 5591 5590 5589 5588 5587 5586 5584 5583 5582 5581
5618 5618 5618 5618 5618 5617 5617 5617 5617 5617 5617 5617 5616 5616 5616 5616 5615 5615 5615 5614 5614 5613 5613 5613 5612 5612 5611 5611 5610 5610 5609 5609 5608 5607 5607 5606 5606 5605 5605 5604 5603 5602 5602 5601 5600 5599 5598 5597 5597 5596 5595 5595 5594 5593 5592 5591 5590 5589 5588 5587 5586 5585 5584 5582 5581 5580 5579 5577 5576
5618 5618 5618 5618 5618 5617 5617 5617 5617 5617 5617 5616 5616 5616 5616 5615 5615 5614 5614 5613 5613 5612 5612 5612 5611 5610 5610 5609 5609 5608 5608 5607 5607 5606 5605 5604 5604 5603 5602 5602 5601 5600 5599 5599 5597 5597 5596 5595 5593 5592 5592 5591 5590 5589 5588 5587 5586 5585 5584 5583 5582 5581 5579 5578 5577 5575 5574 5572 5571
5618 5618 5618 5618 5618 5617 5617 5617 5617 5617 5616 5616 5616 5615 5615 5614 5614 5614 5613 5612 5612 5612 5611 5610 5610 5609 5608 5608 5607 5607 5606 5605 5605 5604 5603 5602 5602 5601 5600 5599 5598 5597 5597 5596 5595 5594 5593 5592 5591 5590 5589 5588 5587 5586 5585 5583 5582 5581 5580 5579 5577 5576 5575 5573 5572 5570 5569 5567 5566
5618 5618 5618 5618 5617 5617 5617 5617 5617 5616 5616 5616 5615 5615 5614 5614 5613 5612 5612 5612 5611 5611 5610 5609 5608 5608 5607 5607 5606 5605 5604 5604 5603 5602 5601 5600 5599 5599 5598 5597 5596 5595 5594 5594 5593 5592 5591 5590 5589 5587 5586 5585 5584 5583 5582 5580 5579 5578 5577 5575 5574 5572 5571 5569 5567 5566 5564 5562 5560
5618 5618 5618 5617 5617 5617 5617 5616 5616 5616 5615 5615 5614 5614 5613 5613 5612 5612 5611 5611 5610 5610 5609 5608 5607 5607 5606 5605 5604 5603 5602 5602 5601 5600 5599 5598 5597 5597 5596 5595 5594 5593 5592 5592 5590 5589 5588 5587 5587 5585 5584 5583 5582 5580 5579 5577 5576 5575 5573 5572 5570 5568 5567 5565 5563 5561 5559 5557 5555
5617 5617 5617 5617 5617 5616 5616 5616 5615 5615 5614 5614 5613 5613 5612 5612 5611 5611 5610 5609 5609 5608 5608 5607 5606 5605 5604 5603 5602 5602 5601 5600 5599 5598 5597 5597 5596 5595 5594 5593 5592 5591 5590 5589 5588 5587 5586 5585 5584 5582 5581 5580 5578 5577 5576 5574 5572 5571 5569 5568 5566 5564 5562 5560 5558 5556 5554 5552 5549
5617 5617 5617 5616 5616 5616 5615 5615 5614 5614 5613 5613 5612 5612 5611 5611 5610 5609 5608 5608 5607 5607 5606 5605 5604 5603 5603 5602 5601 5600 5599 5598 5597 5597 5596 5595 5594 5593 5592 5591 5590 5588 5587 5587 5585 5584 5583 5582 5581 5579 5578 5576 5575 5573 5572 5570 5568 5566 5565 5563 5561 5558 5556 5554 5552 5550 5547 5545 5542
5616 5616 5616 5615 5615 5615 5614 5614 5613 5613 5612 5612 5611 5611 5610 5609 5608 5608 5607 5606 5606 5605 5604 5603 5603 5602 5601 5600 5599 5598 5598 5597 5596 5595 5594 5593 5592 5591 5589 5588 5587 5586 5585 5583 5582 5581 5580 5578 5577 5575 5574 5572 5570 5568 5567 5565 5563 5561 5559 5557 5555 5553 5550 5548 5545 5543 5540 5537 5535
5615 5615 5615 5614 5614 5613 5613 5613 5612 5612 5611 5611 5610 5609 5609 5608 5607 5606 5606 5605 5604 5603 5603 5602 5601 5601 5600 5599 5598 5597 5596 5595 5594 5593 5592 5590 5589 5588 5587 5586 5584 5583 5582 5580 5579 5577 5576 5574 5573 5571 5569 5567 5565 5563 5562 5560 5558 5556 5554 5552 5549 5547 5544 5541 5538 5536 5532 5529 5526